Weather History for King Salmon, AK

Change the Weather History Date:

Saturday, November 10, 2012

  Actual Average Record
Temperature  
Mean Temperature 38 °F 24 °F  
Max Temperature 45 °F 31 °F 49 °F (1979)
Min Temperature 30 °F 16 °F -17 °F (1975)
Degree Days  
Heating Degree Days 27 41  
Month to date heating degree days 432 398  
Since 1 July heating degree days 2793 2510  
Cooling Degree Days 0    
Month to date cooling degree days 0  
Year to date cooling degree days 0  
Moisture  
Dew Point 34 °F    
Average Humidity 0    
Maximum Humidity 0    
Minimum Humidity 0    
Precipitation  
Precipitation T in 0.05 in 0.70 in (1985)
Month to date precipitation 0.86 0.49  
Year to date precipitation 22.77 17.36  
Snow  
Snow 0.00 in 0.20 in 4.20 in (1987)
Month to date snowfall 0.4 1.8  
Since 1 July snowfall 12.0 4.7  
Since 1 September snowfall 12.0 4.7  
Snow Depth T in    
Sea Level Pressure  
Sea Level Pressure 29.49 in    
Wind  
Wind Speed 5 mph (NNE)    
Max Wind Speed 9 mph    
Max Gust Speed 14 mph    
Visibility 10 miles    
Events Rain    
T = Trace of Precipitation, MM = Missing Value Source: NWS Daily Summary

Daily Weather History Graph

Daily Weather History Graph

Search for Another Location

Airport:

Trip Planner

Search our weather history database for the weather conditions in past years. The results will help you decide how hot, cold, wet, or windy it might be!

Date:

Astronomy

Nov. 10, 2012 Rise Set
Actual Time 9:06 AM AKST 5:13 PM AKST
Civil Twilight 8:21 AM AKST 5:59 PM AKST
Nautical Twilight 7:32 AM AKST 6:47 PM AKST
Astronomical Twilight 6:45 AM AKST 7:34 PM AKST
Moon 4:41 AM AKST (11/10) 3:43 PM AKST (11/10)
Length of Visible Light 9h 37m
Length of Day
8h 06m
Waning Crescent, 13% of the Moon is Illuminated
Nov 10
Waning Crescent
Nov 13
New
Nov 20
First Quarter
Nov 28
Full
Dec 6
Last Quarter

Hourly Weather History & Observations

Time (AKST) Temp. Windchill Dew Point Humidity Pressure Visibility Wind Dir Wind Speed Gust Speed Precip Events Conditions
12:54 AM 39.9 °F 37.8 °F 37.0 °F 89% 29.43 in 10.0 mi NE 3.5 mph - 0.00 in   Overcast
1:54 AM 39.0 °F 36.8 °F 37.0 °F 93% 29.42 in 10.0 mi NNE 3.5 mph - 0.00 in Rain Light Rain
2:54 AM 37.9 °F 33.5 °F 36.0 °F 93% 29.43 in 10.0 mi North 5.8 mph - 0.00 in   Overcast
3:54 AM 39.0 °F 34.0 °F 35.1 °F 86% 29.42 in 10.0 mi NE 6.9 mph - N/A   Overcast
4:54 AM 41.0 °F 36.4 °F 35.1 °F 79% 29.43 in 10.0 mi NE 6.9 mph - N/A   Overcast
5:54 AM 37.0 °F 33.3 °F 35.1 °F 93% 29.44 in 10.0 mi NNE 4.6 mph - N/A   Overcast
6:54 AM 41.0 °F 37.1 °F 35.1 °F 79% 29.44 in 10.0 mi NE 5.8 mph - N/A   Overcast
7:54 AM 41.0 °F 35.8 °F 34.0 °F 76% 29.44 in 10.0 mi ENE 8.1 mph - N/A   Overcast
8:54 AM 39.9 °F 35.1 °F 34.0 °F 79% 29.45 in 10.0 mi ENE 6.9 mph - N/A   Overcast
9:54 AM 39.9 °F 35.1 °F 34.0 °F 79% 29.47 in 10.0 mi ENE 6.9 mph - N/A   Overcast
10:54 AM 39.9 °F 34.5 °F 34.0 °F 79% 29.48 in 10.0 mi ENE 8.1 mph - N/A   Overcast
11:54 AM 39.9 °F 35.8 °F 34.0 °F 79% 29.49 in 10.0 mi East 5.8 mph - 0.00 in   Overcast
12:54 PM 43.0 °F 37.7 °F 35.1 °F 74% 29.50 in 10.0 mi East 9.2 mph - N/A   Overcast
1:54 PM 43.0 °F 38.8 °F 36.0 °F 76% 29.50 in 10.0 mi ESE 6.9 mph - N/A   Overcast
2:54 PM 44.1 °F - 35.1 °F 71% 29.51 in 10.0 mi Calm Calm - N/A   Scattered Clouds
3:54 PM 44.1 °F - 34.0 °F 68% 29.50 in 10.0 mi Calm Calm - N/A   Scattered Clouds
4:54 PM 43.0 °F - 34.0 °F 71% 29.52 in 10.0 mi Calm Calm - N/A   Mostly Cloudy
5:54 PM 39.9 °F 36.7 °F 35.1 °F 83% 29.53 in 10.0 mi NNW 4.6 mph - N/A   Mostly Cloudy
6:54 PM 37.9 °F 35.5 °F 34.0 °F 86% 29.53 in 10.0 mi NW 3.5 mph - N/A   Overcast
7:54 PM 36.0 °F 33.3 °F 33.1 °F 89% 29.55 in 10.0 mi NW 3.5 mph - N/A   Scattered Clouds
8:54 PM 32.0 °F 28.7 °F 30.9 °F 96% 29.56 in 10.0 mi NNE 3.5 mph - N/A   Scattered Clouds
9:54 PM 30.9 °F 25.2 °F 30.0 °F 96% 29.57 in 10.0 mi NNW 5.8 mph - N/A   Scattered Clouds
10:54 PM 32.0 °F 28.7 °F 30.0 °F 92% 29.58 in 10.0 mi NNW 3.5 mph - N/A   Scattered Clouds
11:54 PM 32.0 °F - 30.9 °F 96% 29.59 in 10.0 mi Calm Calm - N/A   Scattered Clouds